sat.trackr.live / text

‹ back to catalog

XM-5

NORAD 37185 · 2010-053A

PAYLOAD ACTIVE UNKNOWN

§ Identity

Operator
Country
US
Launch date
2010-10-14
Launch site
TYMSC
Launch vehicle
Mass (kg)
RCS (m²)
12.62

Purposes: comms

External: N2YO · Heavens-Above · Gunter

§ Orbital elements

Epoch: 2026-09-13T01:19:54.321312Z

Period
1,436.08 min
Inclination
0.0701°
Eccentricity
0.0000300
Mean motion
1.00273031 rev/d
Perigee alt
35,785.0 km
Apogee alt
35,787.5 km
Semi-major
42,164.4 km
B*
0.0000e+0
RAAN
272.2058°
Arg perigee
237.9460°
Mean anomaly
106.6974°
Rev number
5,836

§ Raw data

XM-51 37185U 10053A   26256.05548983 -.00000036  00000+0  00000+0 0  99942 37185   0.0701 272.2058 0000300 237.9460 106.6974  1.00273031 58366

JSON: /api/v1/satellites/37185 · /tle

For live sub-satellite position, see the globe view (requires WebGL).

§ Visibility from observer

Set your observer location to see the next 7 days of passes ≥ 10°. The values pass through the URL so the page stays shareable.

No JS? Fill the form by hand. The geolocation button needs JavaScript.